Showing default

OPTSAT 3000, 42900

Orbit data source: McCants

OPTSAT 3000, 42900 is a payload satellite owned by M.d. Difesa (IT) in SSO that was launched on Wed, 02 Aug 2017 UTC via a VEGA launch vehicle from the French Guiana (FRGUI). Payloads include a variety of satellites, spacecraft, and rockets equipped with specific instruments for various scientific and technological missions. These include communications satellites like Starlink; space stations such as the ISS; scientific satellites like the Hubble; Earth observation satellites from companies like Planet Labs, Umbra, and HawkEye 360; GPS; miniature CubeSats for education and research; and military/defense satellites.

Loading next visibility...
OPTSAT 3000 details
Identifier
42900, 2017-044A
Orbit
SSO
Last TLE update1 year ago
Origin
Flag of ITM.d. Difesa (IT)
ManufacturerIAI
MissionOperational Defense Imaging
Bus & Motor'OFEQ, AOCS
Mass368 kg wet, ~350 kg dry
Launch date (UTC)
2017-08-02 (7 years ago)
Launch vehicle
VEGA
Launch site
French Guiana (FRGUI)
Object type
Payload
Rocket body
Debris
Shape & HBRBox + 2 Pan, 4.5 m
Radar Cross Section5.873 m²

Expand to show TLE details & history

TLE from 1 year ago
Optsat 3000
1 42900U 17044A   23252.85382013 0.00014200  00000-0  54862-3 0    03
2 42900  97.3828 315.0824 0012962  84.8200 275.1799 15.26209176    08
Epoch: 2023-09-09T20:29Z
Definitive object data (Epoch: 2023-09-09T20:29:30.059Z)
Latitude-0.27141°
Longitude19.11173°
Altitude489.5 km
Speed7.621 km/s
True Right ascension21h 00m 28s
True Declination0° 16' 11"
Sunlit
Object was in full shadow at TLE epoch
Visualization TLE readout
Latitude2.80445°
Longitude131.61021°
Altitude446.285 km
Speed7.64 km/s
Apparent Right ascension03h 53m 22s
Apparent Declination-18° 00' 34"
Sunlit
Object is in daylight
Visualization observer readout
Local Sidereal Time15:01:32
Azimuth329.187° NNW
Elevation-65.397°
Doppler factor1
Orbital elements
Apogee altitude493.008 km
Perigee altitude475.219 km
Semi-major axis6,862.25 km
Eccentricity0.0012962
Inclination97.3828°
RAAN315.0824°
Arg. of periapsis84.82°
True anomaly275.03195°
Mean anomaly275.1799°
Eccentric anomaly275.10593°
Mean motion3.81807 °/min
BSTAR0.00054862
Orbital period94.29 mins
Loading maneuver chart data...
Loading historical data...
Loading historical data...
Loading historical data...
Loading historical data...
Loading historical data...
Loading historical data...
Loading historical data...

OPTSAT 3000 Visibility forecast

Observer location: undefined°, undefined

Span
Click to sort rows by Start time (UTC) header in descending order
Start Az.
Max El. time (UTC)
Max El. Az.
Max El.
End time (UTC)
End Az.
5 mins2024-12-26 17:45:29.469Z0.726° NNE2024-12-26 17:48:29.469Z260.637° W38.294°2024-12-26 17:50:29.469Z210.681° SW
4 mins2024-12-27 04:14:29.469Z126.633° SE2024-12-27 04:16:29.469Z68.309° E28.474°2024-12-27 04:18:29.469Z16.295° NNE
|